Temp
13 14 14 14 15 15 14 14 14 14 14 14 14 14 15 15 16 17 16 16 15 15
13 14 14 14 14 14 14 13 13 13 13 13 13 14 14 15 15 14 14 15 14 14
12 12 13 13 13 13 13 13 14 13 14 14 14 14 14 14 14 14 14 14 14 14
10 10 10 11 11 11 12 12 13 13 13 13 14 13 14 14 14 14 13 13 13 14
8 9 9 9 9 10 10 10 10 11 11 11 12 12 12 12 13 13 13 13 13 13
9 9 8 8 9 9 9 9 10 10 9 10 10 10 10 11 11 11 11 11 11 12
7 8 8 8 8 8 8 9 9 8 8 8 8 9 9 9 9 9 9 10 10 10
6 6 7 7 7 7 7 7 7 7 7 7 7 7 7 7 8 8 8 9 9 9
6 6 6 6 6 6 6 6 6 6 6 6 6 6 6 6 6 6 7 7 8 8
5 5 5 5 5 5 5 5 5 5 5 5 5 5 5 5 5 5 6 6 7 7
4 4 4 4 3 3 3 3 3 3 3 3 4 4 3 3 3 4 4 5 6 6
4 4 4 4 3 3 3 3 2 2 2 2 3 3 2 2 2 3 3 3 3 4
3 3 3 2 2 2 1 1 1 1 1 1 1 2 1 1 2 2 2 3 3 4
2 1 1 1 0 0 0 0 0 0 0 0 1 0 0 1 1 1 1 2 2 2
Height
728 729 733 734 737 739 743 742 746 748 749 756 760 764 769 773 774 774 776 777 783 784
726 726 727 730 734 736 739 743 746 748 751 754 759 762 764 767 769 771 772 775 778 778
725 724 723 728 732 735 737 740 744 747 750 752 754 757 761 761 764 765 767 766 771 771
725 727 728 731 734 737 738 740 744 747 749 750 753 755 756 756 757 757 759 762 761 761
734 734 733 735 739 741 743 746 747 748 749 748 750 751 752 752 750 749 752 753 752 753
739 740 743 745 746 747 748 749 750 752 754 753 754 754 753 751 750 749 750 750 750 750
749 750 751 752 752 752 752 752 754 754 755 754 754 753 752 750 748 749 748 748 747 747
756 756 757 756 756 755 755 755 755 755 755 754 752 751 750 748 748 745 745 744 744 743
758 758 757 757 757 757 757 757 756 755 754 754 752 751 749 748 746 744 744 741 739 737
761 760 760 760 760 759 756 758 757 755 753 751 751 750 748 745 742 740 738 736 734 732
763 762 761 760 760 758 758 757 756 755 754 752 750 747 745 742 738 736 733 731 729 726
764 762 761 762 761 760 758 757 755 754 752 750 747 744 742 739 735 731 730 728 724 722
767 765 764 762 761 761 759 757 755 753 751 748 746 743 739 736 732 729 726 724 721 719
767 765 764 762 761 758 756 753 752 750 747 745 741 739 737 734 732 728 724 720 717 714
Wind_Speed
22 23 26 25 23 18 11 11 10 14 17 16 18 21 27 29 28 22 20 21 28 25
15 18 26 22 17 21 15 15 11 9 7 6 7 7 9 13 13 15 17 21 27 25
19 20 25 22 16 10 10 7 7 9 12 17 20 22 22 23 26 26 28 30 32 34
25 24 24 22 18 16 13 10 5 4 9 18 21 23 25 27 30 28 25 28 27 28
27 27 27 24 19 16 14 11 10 7 8 8 8 7 8 13 17 23 27 28 25 27
30 30 26 23 20 18 15 14 12 9 8 7 5 6 9 11 12 13 15 17 17 20
26 25 23 22 21 20 19 18 16 15 14 13 12 11 11 13 13 14 14 16 17 18
24 23 21 21 20 19 19 19 18 17 16 16 16 16 17 16 17 17 18 17 17 18
23 22 22 21 20 19 20 19 18 19 19 20 20 18 17 17 18 19 19 22 22 22
21 20 19 18 18 19 20 20 21 22 22 22 21 19 19 19 20 20 20 21 22 24
19 18 18 18 18 20 20 21 21 22 23 24 25 24 22 21 22 22 22 23 24 24
20 20 21 20 20 19 21 23 24 23 24 27 29 27 24 22 25 23 23 22 23 25
15 14 15 16 17 16 17 17 19 20 22 23 24 24 24 24 24 24 23 22 23 24
12 12 11 13 15 18 20 21 22 23 23 23 21 21 18 18 22 22 23 23 23 22
Wind_Direction
236 230 216 211 200 210 190 157 175 194 198 201 202 213 223 228 234 236 239 246 246 249
205 208 204 197 205 193 183 190 190 185 196 180 215 232 239 255 261 261 269 265 259 258
117 102 114 119 114 114 134 162 200 227 239 248 275 272 259 264 267 269 269 275 268 266
80 78 81 81 74 70 74 68 115 230 260 251 255 262 267 268 265 264 265 255 259 263
74 72 68 66 63 56 50 48 48 33 0 352 332 315 297 276 250 250 250 253 245 248
63 63 63 64 63 62 58 51 47 44 33 28 1 332 314 315 311 303 296 292 286 281
64 62 59 57 54 51 46 42 34 27 20 13 7 356 344 334 326 317 306 299 295 288
59 58 56 53 47 43 39 33 26 18 11 4 1 357 347 337 326 318 308 299 293 291
49 47 45 42 36 32 27 21 16 13 6 359 356 350 343 337 327 317 312 309 304 300
40 40 37 31 26 24 19 8 5 2 357 348 342 341 336 331 326 319 311 308 306 302
28 30 27 23 19 14 7 3 359 356 353 348 342 341 333 328 327 320 311 304 298 296
12 11 9 8 4 1 357 353 350 346 343 341 335 335 335 331 327 322 316 307 306 306
1 1 1 0 358 354 351 344 342 339 339 336 331 331 327 327 324 318 315 309 305 300
358 355 354 351 354 353 350 345 340 335 335 333 336 331 324 321 320 320 315 311 307 308